Regional Weather Roundup
Issued by NWS Goodland, KS

Home | Current Version | Previous Version | Graphics & Text | Print | Product List | Glossary On
Versions: 1 2 3 4 5 6 7 8 9 10 11 12 13 14 15 16 17 18 19 20 21 22 23 24 25 26 27 28 29 30 31 32 33 34 35 36 37 38 39 40 41 42 43 44 45 46 47 48 49 50
000
ASUS43 KGLD 020608
RWRGLD

GOODLAND FORECAST AREA HOURLY WEATHER ROUNDUP
NATIONAL WEATHER SERVICE GOODLAND KS
1200 AM MDT TUE SEP 02 2014

...OFFICIAL OBSERVATIONS...

CITY           SKY/WX    TMP DP  RH WIND       PRES   REMARKS
GOODLAND KS    CLEAR     64  57  78 S15       30.01S
HILL CITY KS   FAIR      63  58  83 N8        30.00R
IMPERIAL NEB   PTCLDY    58  53  84 NE9       30.07R
MCCOOK NEB     CLEAR     60  55  83 NE5       30.02R
AKRON CO       CLEAR     55  45  68 MISG      30.12R
BURLINGTON CO  CLEAR     60  51  72 S10       30.05S
LIMON CO       PTCLDY    52  45  77 N5        30.12R
$$

...UNOFFICIAL OBSERVATIONS...

CITY           SKY/WX    TMP DP  RH WIND       PRES   REMARKS
COLBY KS       CLEAR     63  59  88 S3        30.01R
NORTON KS      CLEAR     59  52  77 E5        30.00
SHARON SPRINGS   N/A     64  60  87 S5          N/A
WAKEENEY KS      N/A     64  54  69 MISG        N/A
KIT CARSON CO    N/A     65  53  65 CALM        N/A
YUMA CO          N/A     57  50  78 N9          N/A
$$



USA.gov is the U.S. government's official web portal to all federal, state and local government web resources and services.